Wetbulb
53.25 49.41 47.05 48.77 54.08 55.45 53.08 54.42 53.41 52.33 55.14 55.21 53.41 57.67 59.97 60.94 62.83 68.89 68.83 68.70 70.10 74.00 73.70 73.87 73.63 73.25 73.15 72.98 72.68 71.74 71.19 70.17
48.82 47.14 51.91 52.24 54.75 54.87 52.51 53.23 54.08 53.76 52.61 56.45 59.58 58.30 61.02 62.97 62.81 62.17 63.59 69.69 72.39 73.85 73.70 73.92 73.20 73.30 73.50 73.05 71.94 71.45 70.64 69.71
47.35 49.78 54.58 54.80 57.73 53.23 51.72 51.88 52.15 53.21 52.42 53.71 58.80 61.18 60.97 60.97 61.01 59.28 65.62 69.57 71.97 73.85 74.17 74.02 73.07 72.68 73.15 71.77 70.73 69.43 69.54 69.22
44.41 49.72 53.68 54.72 55.25 56.11 52.41 53.69 52.72 52.21 53.87 53.70 58.48 59.35 59.25 60.63 59.16 60.82 64.41 66.54 68.44 72.75 72.19 71.67 71.52 71.71 70.85 69.41 68.00 66.81 66.64 67.03
49.05 50.08 51.65 54.66 57.18 54.95 53.95 51.76 51.86 53.52 51.63 54.50 56.96 58.72 59.05 59.23 59.74 60.19 61.91 64.31 65.18 66.39 68.84 71.69 71.60 71.12 69.58 67.42 65.89 65.13 64.86 65.06
49.88 48.89 49.27 55.94 56.35 55.81 55.12 54.13 57.07 56.75 51.45 51.79 56.35 59.53 59.02 58.47 58.38 58.47 58.61 59.10 59.86 63.45 64.74 65.19 65.94 68.66 67.18 65.96 65.90 65.53 65.30 64.94
49.06 50.07 52.02 54.06 52.06 55.75 57.75 55.06 55.96 55.49 54.51 58.27 59.70 59.23 56.82 55.04 55.40 55.96 58.26 57.69 56.72 57.96 59.16 60.47 61.77 64.68 66.64 66.98 66.54 66.26 64.82 63.80
54.49 54.67 53.49 53.48 52.45 53.07 54.57 54.32 54.88 55.20 57.30 59.68 59.41 56.77 55.29 54.60 54.46 54.72 55.73 56.98 57.85 59.40 59.57 60.20 63.14 61.34 61.76 62.21 62.72 61.41 60.87 60.38
54.95 56.57 56.42 54.84 52.08 53.50 52.64 52.08 55.11 53.27 55.14 56.52 56.80 55.58 54.71 54.43 54.01 55.76 56.68 57.72 57.78 58.55 60.28 60.37 60.37 60.85 59.90 59.75 60.07 60.48 60.60 60.41
55.64 56.83 56.02 53.61 54.00 52.97 53.43 54.03 57.17 56.33 56.66 55.81 55.11 54.34 54.41 54.14 54.98 55.59 55.84 56.87 60.31 61.13 60.63 60.75 61.49 60.80 60.48 61.14 60.17 59.55 59.99 60.54
56.89 57.06 54.39 54.71 53.40 53.70 53.28 56.62 58.16 56.22 55.78 55.19 54.47 54.73 55.06 55.51 56.39 56.25 56.19 58.46 60.11 60.40 60.82 61.80 61.44 61.30 61.17 60.91 60.57 60.21 60.70 61.04
56.56 56.09 54.25 53.34 54.27 54.34 54.51 57.25 56.31 54.70 53.79 53.97 53.94 55.35 55.38 55.99 55.82 56.17 56.35 58.38 59.50 60.17 61.23 61.73 61.50 60.99 61.06 61.81 61.80 61.29 61.18 61.18
53.88 54.48 52.83 55.00 51.63 51.70 55.21 55.74 54.77 53.86 54.00 54.00 54.64 56.88 55.81 56.45 56.47 56.51 56.28 59.26 59.04 59.85 60.34 60.11 60.03 60.84 62.10 61.88 62.36 61.26 61.26 61.15
51.39 53.08 54.11 52.59 47.23 52.64 55.27 54.24 53.87 55.01 55.09 55.12 54.75 55.15 56.31 57.47 57.49 56.98 57.68 58.61 59.45 61.47 59.72 59.44 60.68 61.11 61.58 62.10 61.75 61.84 61.94 60.93
48.51 53.50 52.89 51.37 48.68 53.35 55.21 54.14 53.15 54.47 54.84 55.48 54.53 55.59 57.56 59.05 58.41 57.04 57.26 58.41 58.83 59.45 58.94 60.22 60.52 61.22 61.35 61.92 61.78 62.42 61.92 60.36
46.65 51.07 51.52 50.27 50.76 52.63 54.37 53.69 53.17 53.47 54.60 55.10 55.88 55.88 58.12 58.97 59.13 57.81 58.41 58.92 58.78 58.61 59.47 60.58 60.01 61.34 60.73 61.57 62.30 62.74 61.70 60.32
49.31 52.16 50.60 50.54 50.76 52.14 53.65 53.56 52.35 52.76 53.91 54.77 54.95 56.52 58.08 58.87 58.93 57.99 58.40 59.22 59.06 58.72 58.68 59.02 58.29 59.69 59.13 58.78 60.66 61.35 61.97 61.60
48.38 51.33 50.98 50.65 49.91 51.96 54.18 52.72 52.73 52.98 52.83 52.36 54.46 55.63 57.09 57.67 57.31 56.85 57.33 58.58 59.90 58.74 59.00 58.79 59.67 61.03 60.69 60.98 61.76 61.92 61.96 61.76
45.34 49.72 50.77 48.39 45.64 48.59 52.78 53.16 53.85 54.06 53.62 54.74 54.65 54.67 55.87 57.24 56.03 56.24 56.48 57.52 59.40 59.40 58.61 59.61 61.02 61.51 60.43 61.14 60.91 60.87 61.33 60.36
47.47 46.44 40.80 48.55 37.29 45.16 49.06 49.80 52.02 53.12 52.19 53.95 54.80 55.91 56.20 56.84 55.57 55.83 57.55 58.47 59.78 59.22 58.55 60.37 60.42 59.84 59.18 58.43 58.08 59.86 61.05 61.84
MSLP
1010.94 1010.31 1009.48 1008.12 1006.27 1004.88 1004.18 1003.67 1003.87 1004.18 1004.50 1005.79 1006.82 1007.31 1007.96 1008.18 1008.56 1009.24 1009.72 1010.14 1010.54 1011.06 1011.35 1011.88 1012.29 1012.62 1012.97 1013.24 1013.37 1013.47 1013.62 1013.67
1010.25 1009.40 1007.64 1006.36 1005.16 1004.48 1004.12 1003.68 1003.71 1004.09 1005.07 1005.90 1006.18 1006.82 1007.44 1007.89 1008.18 1008.50 1009.41 1009.94 1010.35 1010.95 1011.32 1012.01 1012.40 1012.67 1012.83 1012.96 1013.10 1013.26 1013.32 1013.35
1009.74 1008.37 1006.97 1005.60 1004.00 1003.90 1004.03 1003.98 1003.99 1003.95 1005.38 1006.23 1006.68 1006.79 1007.23 1007.71 1008.20 1008.88 1009.52 1009.92 1010.37 1010.91 1011.35 1011.77 1012.18 1012.36 1012.48 1012.70 1012.82 1013.09 1013.10 1013.10
1009.61 1007.72 1006.15 1004.84 1004.09 1004.09 1003.77 1003.84 1004.16 1004.69 1005.65 1006.75 1006.84 1007.01 1007.34 1007.59 1008.19 1008.74 1009.51 1010.06 1010.40 1010.68 1011.05 1011.22 1011.63 1011.92 1012.17 1012.44 1012.71 1012.92 1012.95 1013.07
1009.26 1007.70 1005.93 1004.51 1004.30 1003.78 1003.78 1003.51 1003.93 1004.46 1005.44 1006.89 1007.07 1006.94 1007.21 1007.55 1008.25 1008.59 1009.26 1009.91 1010.20 1010.32 1010.59 1010.75 1011.31 1011.71 1011.97 1012.17 1012.45 1012.59 1012.65 1012.78
1008.70 1007.49 1005.74 1004.40 1003.20 1002.95 1002.86 1002.86 1003.12 1003.57 1004.93 1006.73 1006.85 1006.79 1007.11 1007.58 1008.09 1008.38 1008.83 1009.30 1009.71 1009.86 1010.37 1010.95 1011.39 1011.48 1011.68 1011.82 1012.00 1012.23 1012.38 1012.51
1007.85 1006.93 1005.27 1004.25 1003.66 1002.93 1002.48 1002.79 1003.01 1003.36 1003.93 1004.68 1005.87 1006.47 1007.14 1007.81 1008.25 1008.35 1008.67 1008.88 1009.39 1010.04 1010.44 1011.03 1011.36 1011.43 1011.46 1011.50 1011.49 1011.85 1011.98 1012.04
1006.75 1006.02 1004.96 1004.22 1003.62 1003.23 1003.05 1002.87 1003.01 1003.46 1004.13 1004.94 1005.63 1006.43 1007.22 1007.74 1008.12 1008.41 1008.75 1009.46 1009.44 1009.92 1010.24 1010.50 1010.64 1011.14 1011.52 1011.51 1011.29 1011.66 1011.78 1011.78
1005.68 1005.04 1004.28 1003.90 1003.44 1003.11 1003.12 1003.06 1002.81 1003.34 1004.28 1004.99 1005.58 1006.38 1007.02 1007.35 1007.55 1008.28 1008.64 1009.14 1009.33 1009.66 1010.04 1010.58 1010.85 1011.08 1011.13 1011.04 1011.23 1011.38 1011.38 1011.52
1004.79 1004.23 1003.84 1003.69 1003.07 1002.94 1002.92 1002.58 1002.18 1002.69 1003.56 1004.65 1005.53 1006.25 1006.71 1007.03 1007.76 1008.11 1008.70 1009.16 1009.30 1009.63 1010.15 1010.59 1010.83 1011.02 1011.01 1011.18 1011.22 1011.22 1011.11 1011.16
1003.94 1003.40 1003.09 1002.86 1002.81 1002.70 1002.54 1002.13 1002.08 1002.51 1003.23 1004.16 1004.90 1005.67 1006.08 1006.66 1007.42 1007.86 1008.49 1009.03 1009.18 1009.64 1010.15 1010.51 1010.74 1010.90 1010.99 1011.01 1010.79 1010.73 1010.65 1010.75
1003.45 1002.87 1002.45 1002.27 1002.28 1002.28 1001.79 1001.41 1001.77 1002.17 1002.83 1003.48 1004.17 1004.91 1005.84 1006.76 1007.54 1007.82 1008.20 1008.81 1009.07 1009.59 1009.97 1010.23 1010.55 1010.74 1010.67 1010.49 1010.41 1010.44 1010.33 1010.44
1003.05 1002.46 1001.90 1001.91 1001.89 1001.62 1001.39 1001.17 1001.56 1002.07 1002.34 1002.76 1003.40 1004.25 1004.92 1005.81 1006.75 1007.24 1007.86 1008.46 1009.02 1009.39 1009.63 1010.01 1010.21 1010.33 1010.31 1010.16 1010.10 1010.26 1010.12 1010.11
1002.68 1002.20 1001.35 1001.85 1001.09 1000.98 1000.70 1001.05 1001.39 1001.59 1001.77 1002.26 1002.91 1003.37 1004.18 1005.05 1006.10 1006.80 1007.47 1008.29 1008.81 1009.13 1009.52 1009.89 1010.02 1009.98 1009.91 1009.73 1009.60 1009.82 1009.79 1009.77
1002.24 1001.62 1001.27 1001.11 1000.33 1000.11 1000.01 1000.55 1001.04 1001.40 1001.56 1001.95 1002.39 1003.37 1004.02 1004.72 1005.64 1006.40 1007.21 1008.14 1008.87 1009.13 1009.33 1009.67 1009.72 1009.66 1009.67 1009.57 1009.41 1009.46 1009.47 1009.51
1002.05 1000.67 1000.83 1000.60 1000.06 999.53 999.68 999.99 1000.47 1000.84 1001.03 1001.35 1002.20 1003.21 1003.74 1004.80 1005.57 1006.33 1007.03 1007.84 1008.62 1009.00 1009.30 1009.46 1009.49 1009.49 1009.46 1009.30 1009.31 1009.15 1009.32 1009.32
1001.31 1000.34 1000.73 1000.46 1000.31 999.82 999.25 999.71 1000.25 1000.52 1000.79 1000.92 1001.68 1003.04 1003.91 1004.87 1005.50 1006.27 1006.84 1007.84 1008.63 1009.06 1009.18 1009.34 1009.53 1009.65 1009.57 1009.46 1009.22 1009.05 1009.04 1008.90
1001.18 1000.25 1000.17 1000.12 999.98 999.49 998.96 999.41 999.37 999.62 999.97 1000.59 1002.11 1003.49 1004.39 1005.05 1005.64 1006.29 1006.84 1007.61 1008.43 1008.88 1009.06 1009.16 1009.32 1009.28 1009.11 1009.08 1008.96 1008.90 1008.75 1008.68
1001.36 1000.16 999.62 999.74 999.53 999.22 998.70 998.50 998.65 998.75 998.84 1000.39 1001.65 1003.16 1004.10 1004.93 1005.64 1006.39 1006.88 1007.45 1008.21 1008.71 1008.87 1008.93 1009.07 1008.95 1009.01 1008.95 1008.94 1008.69 1008.56 1008.52
1000.73 1000.61 1000.61 999.70 1000.20 999.91 999.27 998.94 998.59 998.39 999.05 1000.31 1001.56 1002.73 1003.69 1004.67 1005.59 1006.21 1006.81 1007.31 1007.99 1008.46 1008.69 1008.80 1008.83 1009.08 1009.17 1009.29 1009.37 1008.83 1008.50 1008.46
Wind_Speed
4 4 8 4 9 14 5 7 5 4 6 6 8 8 8 8 13 15 14 14 14 19 17 15 14 12 11 11 13 12 11 10
1 10 14 3 8 4 4 5 6 6 7 5 5 6 10 10 10 9 9 11 14 16 14 11 11 10 11 12 11 10 11 11
5 12 15 6 10 3 5 6 2 7 6 7 3 11 10 9 6 11 8 9 10 14 11 11 10 9 8 5 4 3 7 9
6 14 7 6 5 8 3 5 4 7 8 6 7 9 9 9 8 11 12 9 8 14 13 13 12 11 10 8 6 4 5 7
14 16 15 13 5 4 6 3 3 4 3 5 7 9 9 9 9 9 11 12 9 9 12 15 12 11 10 10 9 8 6 7
13 12 14 13 5 6 7 7 10 10 5 6 7 10 9 9 9 9 8 8 9 8 6 6 6 13 13 11 11 9 8 7
17 16 18 10 7 7 6 4 3 8 8 10 12 10 8 6 6 6 7 8 6 8 8 7 7 7 12 14 13 11 7 4
16 18 18 10 8 8 7 9 6 5 9 14 14 9 9 7 8 8 6 6 7 8 7 5 2 3 5 6 5 5 3 2
17 22 19 14 8 8 11 7 3 10 11 11 7 8 9 8 6 8 8 6 7 7 7 6 1 2 2 2 2 2 5 4
22 22 18 10 7 9 14 9 5 8 15 10 9 10 10 8 9 9 8 7 8 8 6 4 2 1 2 1 2 3 4 6
23 22 10 7 9 15 19 7 1 10 11 12 11 10 9 7 10 9 9 7 8 7 6 5 3 3 3 3 2 4 3 4
23 20 8 10 17 17 12 6 6 8 9 10 11 13 7 9 8 8 9 8 7 6 6 5 4 5 4 4 5 4 3 4
21 14 14 14 18 16 10 8 10 10 10 10 10 14 15 12 11 10 8 9 7 6 6 6 6 5 4 4 4 4 4 5
12 11 20 13 21 15 11 9 10 11 10 9 11 16 11 13 11 10 9 8 6 3 6 5 4 4 3 4 4 4 4 3
17 18 22 12 19 16 12 9 9 11 8 9 9 6 13 13 12 10 9 9 5 4 2 2 3 4 4 4 2 3 3 3
19 23 18 14 14 10 11 11 12 9 10 9 9 15 16 15 13 10 9 9 6 3 3 2 3 3 2 2 2 3 2 3
24 21 21 4 22 13 10 8 8 10 9 10 10 10 16 14 13 10 10 9 6 4 4 1 2 1 1 2 2 2 3 6
23 20 5 19 22 15 9 7 9 11 10 6 11 13 13 12 8 8 10 9 6 5 3 1 1 2 2 1 3 2 3 2
19 21 17 5 7 6 5 4 7 10 8 16 22 18 14 14 11 9 9 8 7 5 5 2 2 3 2 2 3 2 1 1
22 17 8 0 6 4 6 10 10 11 10 16 19 16 14 13 9 9 8 8 7 7 4 2 2 4 3 1 2 2 1 1
Wind_Direction
190 214 225 255 264 329 21 15 130 152 99 105 141 114 136 162 134 150 164 167 175 180 181 188 192 193 199 208 217 221 226 234
259 253 269 155 285 243 18 347 174 137 111 58 146 119 148 161 160 161 138 164 164 175 177 187 197 204 210 221 230 234 240 247
263 268 268 278 231 103 22 319 353 135 112 107 70 120 131 137 130 107 106 125 144 158 163 176 197 209 224 233 225 243 262 262
274 282 311 281 55 356 9 297 28 37 109 173 151 125 151 142 132 115 135 131 144 151 163 173 188 193 170 169 167 205 241 259
279 291 308 308 71 193 242 216 112 117 92 147 158 169 156 133 123 115 128 147 155 163 179 179 181 174 178 177 193 209 229 255
278 286 288 293 222 201 230 196 167 144 156 181 210 158 134 129 134 149 162 165 165 178 155 144 170 179 191 189 204 204 213 240
267 274 278 317 355 328 335 141 203 177 152 154 155 140 131 151 167 175 180 169 141 127 120 143 184 197 197 210 208 199 219 230
259 269 279 300 331 329 353 312 261 97 90 136 152 153 157 175 182 198 145 102 108 107 107 91 15 99 203 236 170 183 190 245
254 259 274 287 324 309 305 297 302 162 155 160 149 162 183 193 185 140 138 124 130 119 111 108 70 336 297 319 161 175 211 214
255 258 254 262 293 294 278 250 248 147 163 156 166 184 187 191 148 138 116 120 107 110 116 123 119 281 287 146 184 228 223 214
260 266 250 272 263 262 269 266 139 147 145 171 178 186 195 159 132 135 116 119 114 116 130 149 168 243 259 274 272 267 244 233
256 267 251 259 265 262 251 248 201 157 163 171 179 189 140 136 141 124 127 123 127 130 157 162 197 222 237 235 243 248 258 258
270 267 266 252 253 256 250 220 213 197 203 204 195 155 167 157 149 140 138 128 138 175 172 179 217 237 236 239 241 241 249 249
256 269 267 252 259 244 233 217 236 225 218 189 196 180 163 149 134 130 126 135 152 132 144 208 215 255 227 237 238 235 242 229
268 246 262 242 253 256 201 213 248 227 218 212 204 127 148 143 137 133 130 131 145 130 134 218 295 277 231 267 259 230 234 207
258 257 255 265 309 201 204 201 227 239 218 216 150 162 146 139 136 134 133 125 126 143 204 195 285 313 248 274 283 232 247 211
254 254 248 347 269 253 208 218 225 235 234 230 163 143 136 137 134 130 126 132 157 185 213 156 308 302 295 264 253 229 230 239
273 277 228 209 248 249 206 215 218 228 245 207 120 129 132 134 126 135 138 148 172 184 185 187 263 250 175 252 270 201 199 244
259 277 285 284 321 314 266 249 275 250 220 137 145 148 150 144 142 140 144 155 172 174 147 170 337 358 357 2 337 350 321 271
250 261 259 353 281 302 301 298 295 275 129 143 151 153 149 147 141 145 152 156 149 148 156 170 68 49 53 87 299 278 230 77